Location: Unspecified
(0.0000°N, 0.0000°E)
Time: 05:59:22
(UTC+00:00)

XW-2F - Pass Details

Date: 18 July 2020
Orbit: 501 x 522 km, 97.5° (Epoch: 13 August)

Event Time Altitude Azimuth Distance (km) Brightness Sun altitude
Rises 05:25:17 0° 21° (NNE) 2,606 ? -9.6°
Reaches altitude 10° 05:27:26 10° 28° (NNE) 1,720 ? -9.1°
Maximum altitude 05:30:59 44° 101° (E) 705 ? -8.2°
Drops below altitude 10° 05:34:31 10° 174° (S) 1,717 ? -7.4°
Sets 05:36:39 0° 181° (S) 2,601 ? -6.9°
